Синыйджу

Северная Корея     40°06′25″N   124°24′02″E
В апреле 2022 года жителям России запретили посещать сайт meteo.paraplan.net по решению Генеральной прокуратуры. Аудитория сайта уменьшилась в 10 раз. Владельцы сайта не видят смысла в поддержке погодного сервера в таких условиях. Сайт будет закрыт в октябре.
темп.,
°C
ветер,
м/с
пор.,
м/с
влажн.,
%
обл.,
%
осадки,
мм/ч
давл.,
гПа
погр.,
м
3 октября, пн
пн300:00+16в41085100 0.0 1013479
03:00+15с2391100 0.1 1013101
06:00+15с2490100 0.0 1013102
09:00+16с2389100 0.0 1014133
12:00+17с2486100 0.0 1013231
15:00+17с3787100 0.0 1012417
18:00+11с81593100 3.5 1013419
21:00+10с91689100 6.8 1014696
4 октября, вт
вт400:00+9с101781100 1.3 1015826
03:00+8с1018758 1.3 1017946
06:00+7с91769100 0.0 1019864
09:00+8с916580 0.0 10201022
12:00+11с10144788 0.0 10201286
15:00+12с913482 0.0 10211526
18:00+8с915493 0.0 1023646
21:00+7с715430 0.0 1024720
5 октября, ср
ср500:00+5с715450 0.0 1025617
03:00+4с817450 0.0 1025600
06:00+3с716500 0.0 1025474
09:00+6с714510 0.0 1026624
12:00+11с79390 0.0 10261037
15:00+13с67374 0.0 10241390
18:00+9ссз4105991 0.0 1025207
21:00+7с41254100 0.0 1026260
6 октября, чт
чт600:00+5ссв3457100 0.0 102767
03:00+4с366271 0.0 1027101
06:00+4с4863100 0.0 1027159
09:00+7с4858100 0.0 1027283
12:00+11с684893 0.0 1025694
15:00+13с4541100 0.0 1024960
18:00+9ссз33605 0.0 102325
21:00+8с2256100 0.0 102417
7 октября, пт
пт700:00+7с2258100 0.0 102426
03:00+5с33625 0.0 102430
06:00+4ссв33640 0.0 102435
09:00+9ссв34580 0.0 1024170
12:00+15с23410 0.0 1024547
15:00+16сз22370 0.0 10221022
18:00+12юз11560 0.0 102313
21:00+9зсз11645 0.0 102412